Location: Nag� el Ma?a??a
(24.0667°N, 32.8833°E)
Time: 18:47:34
(UTC+00:00)

SJ 16-02 - Pass Details

Date: 28 January 2022
Orbit: 605 x 615 km, 75.0° (Epoch: 18 May)

Event Time Altitude Azimuth Distance (km) Brightness Sun altitude
Rises 03:37:54 0° 356° (N) 2,884 4.6 -12.5°
Reaches altitude 10° 03:40:16 10° 4° (N) 1,976 3.8 -12.0°
Maximum altitude 03:44:25 40° 74° (ENE) 914 2.8 -11.0°
Drops below altitude 10° 03:48:33 10° 144° (SE) 1,966 4.8 -10.1°
Sets 03:50:53 0° 152° (SSE) 2,867 5.5 -9.6°
